Location: Fours
(44.3167°N, 6.7000°E)
Time: 09:21:03
(UTC+00:00)

Cosmos 1125 Rocket - Pass Details

Date: 16 October 2021
Orbit: 758 x 779 km, 74.0° (Epoch: 07 December)

Event Time Altitude Azimuth Distance (km) Brightness Sun altitude
Rises 17:33:50 0° 189° (S) 3,236 6.9 -9.1°
Reaches altitude 10° 17:36:14 10° 186° (S) 2,310 6.1 -9.5°
Maximum altitude 17:41:24 63° 106° (ESE) 861 3.5 -10.4°
Drops below altitude 10° 17:46:35 10° 27° (NNE) 2,313 5.7 -11.4°
Sets 17:48:58 0° 24° (NNE) 3,240 6.5 -11.8°
